TimePDT,TemperatureF,Dew PointF,Humidity,Sea Level PressureIn,VisibilityMPH,Wind Direction,Wind SpeedMPH,Gust SpeedMPH,PrecipitationIn,Events,Conditions,WindDirDegrees,DateUTC
12:53 AM,66.9,63.0,87,29.91,10.0,Calm,Calm,-,0.00,Rain,Light Rain,0,2013-08-29 07:53:00
1:53 AM,64.9,64.0,97,29.90,10.0,Calm,Calm,-,0.04,Rain,Light Rain,0,2013-08-29 08:53:00
2:53 AM,64.9,64.0,97,29.89,10.0,Calm,Calm,-,0.02,Rain,Light Rain,0,2013-08-29 09:53:00
3:53 AM,64.9,64.0,97,29.87,10.0,Calm,Calm,-,0.03,Rain,Light Rain,0,2013-08-29 10:53:00
4:20 AM,64.4,64.4,100,29.85,10.0,Calm,Calm,-,0.00,,Overcast,0,2013-08-29 11:20:00
4:28 AM,64.4,64.4,100,29.85,10.0,Calm,Calm,-,0.00,,Overcast,0,2013-08-29 11:28:00
4:53 AM,64.9,64.0,97,29.86,10.0,Calm,Calm,-,0.00,,Overcast,0,2013-08-29 11:53:00
5:00 AM,64.4,64.4,100,29.86,10.0,Calm,Calm,-,N/A,,Overcast,0,2013-08-29 12:00:00
5:21 AM,64.4,64.4,100,29.86,10.0,Calm,Calm,-,0.00,Rain,Light Rain,0,2013-08-29 12:21:00
5:53 AM,64.0,64.0,100,29.86,10.0,Calm,Calm,-,0.02,Rain,Light Rain,0,2013-08-29 12:53:00
6:46 AM,64.4,62.6,94,29.88,10.0,SSW,4.6,-,0.03,Rain-Thunderstorm,Light Rain,210,2013-08-29 13:46:00
6:53 AM,64.0,63.0,96,29.89,10.0,SSW,3.5,-,0.03,Rain-Thunderstorm,Light Rain,200,2013-08-29 13:53:00
7:01 AM,64.4,64.4,100,29.90,3.0,SSW,3.5,-,0.02,Rain,Rain,200,2013-08-29 14:01:00
7:15 AM,64.4,64.4,100,29.90,7.0,SSW,3.5,-,0.03,Rain,Light Rain,200,2013-08-29 14:15:00
7:26 AM,64.4,64.4,100,29.90,2.0,Calm,Calm,-,0.07,Rain,Rain,0,2013-08-29 14:26:00
7:32 AM,64.4,64.4,100,29.90,4.0,SSE,4.6,-,0.08,Rain,Light Rain,160,2013-08-29 14:32:00
7:53 AM,64.0,64.0,100,29.91,5.0,South,3.5,-,0.10,Rain,Light Rain,180,2013-08-29 14:53:00
8:06 AM,64.4,64.4,100,29.91,10.0,Calm,Calm,-,0.00,Rain,Light Rain,0,2013-08-29 15:06:00
8:53 AM,64.9,64.9,100,29.91,10.0,South,4.6,-,0.00,,Overcast,180,2013-08-29 15:53:00
9:10 AM,66.2,64.4,94,29.92,10.0,SW,3.5,-,N/A,,Mostly Cloudy,230,2013-08-29 16:10:00
9:53 AM,66.9,64.9,93,29.93,10.0,WSW,5.8,-,N/A,,Mostly Cloudy,250,2013-08-29 16:53:00
10:53 AM,68.0,64.9,90,29.95,10.0,Calm,Calm,-,0.01,Rain,Light Rain,0,2013-08-29 17:53:00
11:53 AM,71.1,64.0,78,29.95,10.0,South,10.4,-,0.02,,Clear,170,2013-08-29 18:53:00
12:53 PM,73.9,63.0,68,29.96,10.0,SSW,9.2,16.1,N/A,,Mostly Cloudy,200,2013-08-29 19:53:00
1:53 PM,73.9,63.0,68,29.98,10.0,South,17.3,23.0,0.00,,Overcast,190,2013-08-29 20:53:00
2:53 PM,75.0,63.0,66,29.99,10.0,South,18.4,24.2,0.00,,Overcast,180,2013-08-29 21:53:00
3:53 PM,77.0,64.0,64,29.98,10.0,South,12.7,21.9,N/A,,Scattered Clouds,190,2013-08-29 22:53:00
4:53 PM,75.9,61.0,60,29.99,10.0,SSW,8.1,20.7,N/A,,Scattered Clouds,210,2013-08-29 23:53:00
5:53 PM,73.9,60.1,62,30.00,10.0,SW,12.7,17.3,0.00,,Overcast,220,2013-08-30 00:53:00
6:53 PM,73.0,60.1,64,30.01,10.0,SW,11.5,16.1,N/A,,Overcast,230,2013-08-30 01:53:00
7:53 PM,72.0,61.0,68,30.03,10.0,SW,8.1,-,0.00,,Overcast,220,2013-08-30 02:53:00
8:53 PM,70.0,61.0,73,30.05,10.0,SSW,4.6,-,N/A,,Overcast,200,2013-08-30 03:53:00
9:53 PM,69.1,61.0,75,30.06,10.0,South,8.1,-,N/A,,Overcast,190,2013-08-30 04:53:00
10:53 PM,68.0,61.0,78,30.07,10.0,South,8.1,-,N/A,,Overcast,190,2013-08-30 05:53:00
11:53 PM,66.9,61.0,81,30.08,10.0,SSW,3.5,-,N/A,,Overcast,200,2013-08-30 06:53:00